| time (UTC) | temp C | wind direction | speed KPH | gust KPH | rain 1hr cm | rain 24hr cm | rain mn cm | humidity % | barometer mb |
| 20260505041624 | 26 | 337 | 1.6 | 4.8 | 0.00 | 0.00 | 0.00 | 82 | 1018.9 |
| 20260505041122 | 27 | 331 | 1.6 | 3.2 | 0.00 | 0.00 | 0.00 | 82 | 1018.9 |
| 20260505040619 | 27 | 115 | 3.2 | 6.4 | 0.00 | 0.00 | 0.00 | 82 | 1018.8 |
| 20260505040116 | 27 | 159 | 3.2 | 4.8 | 0.00 | 0.00 | 0.00 | 82 | 1018.9 |
| 20260505035612 | 27 | 343 | 3.2 | 4.8 | 0.00 | 0.00 | 0.00 | 82 | 1018.8 |
| 20260505035109 | 27 | 21 | 1.6 | 4.8 | 0.00 | 0.00 | 0.00 | 82 | 1018.9 |
| 20260505034605 | 27 | 253 | 3.2 | 4.8 | 0.00 | 0.00 | 0.00 | 82 | 1018.8 |
| 20260505034102 | 27 | 345 | 3.2 | 6.4 | 0.00 | 0.00 | 0.00 | 82 | 1019.2 |
| 20260505033559 | 27 | 349 | 1.6 | 4.8 | 0.00 | 0.00 | 0.00 | 82 | 1019.2 |
| 20260505033058 | 27 | 310 | 6.4 | 11.3 | 0.00 | 0.00 | 0.00 | 82 | 1018.9 |
| 20260505032555 | 27 | 56 | 1.6 | 6.4 | 0.00 | 0.00 | 0.00 | 81 | 1018.9 |
| 20260505032051 | 27 | 354 | 1.6 | 12.9 | 0.00 | 0.00 | 0.00 | 81 | 1018.7 |
| 20260505031549 | 27 | 341 | 3.2 | 6.4 | 0.00 | 0.00 | 0.00 | 81 | 1018.9 |
| 20260505031045 | 27 | 338 | 3.2 | 11.3 | 0.00 | 0.00 | 0.00 | 81 | 1018.9 |
| 20260505030542 | 27 | 331 | 1.6 | 4.8 | 0.00 | 0.00 | 0.00 | 81 | 1018.8 |
| 20260505030038 | 27 | 17 | 1.6 | 4.8 | 0.00 | 0.00 | 0.00 | 81 | 1018.6 |
| 20260505025533 | 27 | 344 | 0.0 | 3.2 | 0.00 | 0.00 | 0.00 | 81 | 1018.8 |
| 20260505025033 | 27 | 333 | 1.6 | 3.2 | 0.00 | 0.00 | 0.00 | 81 | 1018.8 |
| 20260505024529 | 27 | 317 | 1.6 | 4.8 | 0.00 | 0.00 | 0.00 | 80 | 1018.6 |
| 20260505024026 | 27 | 0 | 3.2 | 9.7 | 0.00 | 0.00 | 0.00 | 80 | 1018.6 |
| 20260505023523 | 27 | 350 | 1.6 | 6.4 | 0.00 | 0.00 | 0.00 | 80 | 1018.8 |
| 20260505023021 | 27 | 8 | 1.6 | 3.2 | 0.00 | 0.00 | 0.00 | 80 | 1018.6 |
| 20260505022519 | 27 | 170 | 0.0 | 6.4 | 0.00 | 0.00 | 0.00 | 80 | 1018.6 |
| 20260505022016 | 27 | 328 | 3.2 | 9.7 | 0.00 | 0.00 | 0.00 | 80 | 1018.6 |
| 20260505021512 | 27 | 331 | 6.4 | 14.5 | 0.00 | 0.00 | 0.00 | 80 | 1018.6 |
| 20260505021008 | 27 | 66 | 3.2 | 6.4 | 0.00 | 0.00 | 0.00 | 80 | 1018.7 |
| 20260505020503 | 27 | 26 | 6.4 | 9.7 | 0.00 | 0.00 | 0.00 | 80 | 1018.7 |
| 20260505020000 | 27 | 194 | 3.2 | 6.4 | 0.00 | 0.00 | 0.00 | 80 | 1018.5 |
| 20260505015457 | 27 | 245 | 0.0 | 3.2 | 0.00 | 0.00 | 0.00 | 80 | 1018.6 |
| 20260505014954 | 27 | 4 | 3.2 | 6.4 | 0.00 | 0.00 | 0.00 | 80 | 1018.5 |
| 20260505014451 | 27 | 57 | 3.2 | 4.8 | 0.00 | 0.00 | 0.00 | 80 | 1018.6 |
| 20260505013948 | 27 | 20 | 1.6 | 9.7 | 0.00 | 0.00 | 0.00 | 79 | 1018.4 |
| 20260505013445 | 27 | 20 | 3.2 | 4.8 | 0.00 | 0.00 | 0.00 | 79 | 1018.5 |
| 20260505012943 | 27 | 345 | 1.6 | 4.8 | 0.00 | 0.00 | 0.00 | 80 | 1018.3 |
| 20260505012441 | 27 | 316 | 1.6 | 4.8 | 0.00 | 0.00 | 0.00 | 80 | 1018.2 |
| 20260505011937 | 27 | 38 | 3.2 | 11.3 | 0.00 | 0.00 | 0.00 | 80 | 1018.2 |
| 20260505011433 | 27 | 114 | 4.8 | 9.7 | 0.00 | 0.00 | 0.00 | 80 | 1018.1 |
| 20260505010930 | 27 | 340 | 1.6 | 4.8 | 0.00 | 0.00 | 0.00 | 80 | 1018.2 |
| 20260505010426 | 27 | 40 | 3.2 | 11.3 | 0.00 | 0.00 | 0.00 | 80 | 1018.1 |
| 20260505005922 | 27 | 218 | 4.8 | 9.7 | 0.00 | 0.00 | 0.00 | 80 | 1017.9 |
| 20260505005419 | 27 | 337 | 4.8 | 9.7 | 0.00 | 0.00 | 0.00 | 80 | 1018.0 |
| 20260505004916 | 27 | 249 | 1.6 | 6.4 | 0.00 | 0.00 | 0.00 | 80 | 1017.8 |
| 20260505004413 | 27 | 357 | 1.6 | 16.1 | 0.00 | 0.00 | 0.00 | 79 | 1017.8 |
| 20260505003910 | 27 | 192 | 6.4 | 11.3 | 0.00 | 0.00 | 0.00 | 80 | 1017.7 |
| 20260505003407 | 27 | 352 | 1.6 | 6.4 | 0.00 | 0.00 | 0.00 | 79 | 1017.6 |
| 20260505002903 | 27 | 36 | 1.6 | 3.2 | 0.00 | 0.00 | 0.00 | 79 | 1017.7 |
| 20260505002400 | 27 | 20 | 3.2 | 14.5 | 0.00 | 0.00 | 0.00 | 79 | 1017.5 |
| 20260505001858 | 27 | 24 | 1.6 | 3.2 | 0.00 | 0.00 | 0.00 | 79 | 1017.5 |
| 20260505001355 | 27 | 35 | 3.2 | 6.4 | 0.00 | 0.00 | 0.00 | 79 | 1017.5 |
| 20260505000853 | 27 | 341 | 1.6 | 9.7 | 0.00 | 0.00 | 0.00 | 78 | 1017.4 |
| 20260505000351 | 27 | 353 | 1.6 | 4.8 | 0.00 | 0.00 | 0.00 | 78 | 1017.3 |
| 20260504235846 | 27 | 357 | 0.0 | 4.8 | 0.00 | 0.00 | 0.00 | 78 | 1017.4 |
| 20260504235343 | 27 | 60 | 3.2 | 4.8 | 0.00 | 0.00 | 0.00 | 77 | 1017.1 |
| 20260504234840 | 27 | 348 | 0.0 | 6.4 | 0.00 | 0.00 | 0.00 | 78 | 1017.2 |
| 20260504234338 | 27 | 351 | 3.2 | 4.8 | 0.00 | 0.00 | 0.00 | 77 | 1017.1 |
| 20260504233834 | 28 | 41 | 1.6 | 4.8 | 0.00 | 0.00 | 0.00 | 77 | 1017.0 |
| 20260504233330 | 28 | 260 | 3.2 | 4.8 | 0.00 | 0.00 | 0.00 | 76 | 1017.2 |
| 20260504232827 | 28 | 327 | 1.6 | 11.3 | 0.00 | 0.00 | 0.00 | 76 | 1017.0 |
| 20260504232324 | 28 | 344 | 3.2 | 4.8 | 0.00 | 0.00 | 0.00 | 75 | 1016.8 |
| 20260504231821 | 28 | 58 | 3.2 | 9.7 | 0.00 | 0.00 | 0.00 | 75 | 1017.0 |
| 20260504231317 | 28 | 3 | 0.0 | 4.8 | 0.00 | 0.00 | 0.00 | 74 | 1016.6 |
| 20260504230813 | 28 | 4 | 3.2 | 11.3 | 0.00 | 0.00 | 0.00 | 74 | 1016.7 |
| 20260504230311 | 28 | 79 | 3.2 | 11.3 | 0.00 | 0.00 | 0.00 | 73 | 1016.8 |
| 20260504225810 | 28 | 28 | 1.6 | 24.1 | 0.00 | 0.00 | 0.00 | 73 | 1016.8 |
| 20260504225306 | 28 | 358 | 6.4 | 9.7 | 0.00 | 0.00 | 0.00 | 73 | 1016.4 |
| 20260504224803 | 28 | 224 | 1.6 | 9.7 | 0.00 | 0.00 | 0.00 | 73 | 1016.5 |
| 20260504224300 | 28 | 346 | 1.6 | 12.9 | 0.00 | 0.00 | 0.00 | 72 | 1016.2 |
| 20260504223757 | 28 | 320 | 1.6 | 9.7 | 0.00 | 0.00 | 0.00 | 72 | 1016.2 |
| 20260504223252 | 28 | 322 | 4.8 | 11.3 | 0.00 | 0.00 | 0.00 | 72 | 1016.3 |
| 20260504222749 | 28 | 347 | 4.8 | 9.7 | 0.00 | 0.00 | 0.00 | 71 | 1016.2 |
| 20260504222246 | 29 | 146 | 3.2 | 6.4 | 0.00 | 0.00 | 0.00 | 71 | 1016.0 |
| 20260504221744 | 29 | 210 | 1.6 | 11.3 | 0.00 | 0.00 | 0.00 | 69 | 1016.1 |
| 20260504221241 | 29 | 352 | 3.2 | 12.9 | 0.00 | 0.00 | 0.00 | 70 | 1016.1 |
| 20260504220737 | 29 | 273 | 3.2 | 9.7 | 0.00 | 0.00 | 0.00 | 70 | 1015.9 |
| 20260504220235 | 29 | 340 | 4.8 | 12.9 | 0.00 | 0.00 | 0.00 | 70 | 1015.9 |
| 20260504215732 | 29 | 71 | 8.0 | 12.9 | 0.00 | 0.00 | 0.00 | 69 | 1016.1 |
| 20260504215228 | 30 | 96 | 4.8 | 11.3 | 0.00 | 0.00 | 0.00 | 68 | 1015.8 |
| 20260504214724 | 30 | 353 | 3.2 | 9.7 | 0.00 | 0.00 | 0.00 | 67 | 1016.2 |
| 20260504214221 | 29 | 35 | 4.8 | 14.5 | 0.00 | 0.00 | 0.00 | 67 | 1016.0 |
| 20260504213718 | 29 | 18 | 8.0 | 16.1 | 0.00 | 0.00 | 0.00 | 67 | 1015.7 |
| 20260504213214 | 30 | 170 | 3.2 | 14.5 | 0.00 | 0.00 | 0.00 | 67 | 1015.9 |
| 20260504212711 | 30 | 354 | 4.8 | 6.4 | 0.00 | 0.00 | 0.00 | 65 | 1015.7 |
| 20260504212208 | 30 | 280 | 3.2 | 9.7 | 0.00 | 0.00 | 0.00 | 66 | 1015.7 |
| 20260504211705 | 30 | 312 | 3.2 | 11.3 | 0.00 | 0.00 | 0.00 | 66 | 1015.8 |
| 20260504211201 | 30 | 97 | 6.4 | 12.9 | 0.00 | 0.00 | 0.00 | 65 | 1015.7 |
| 20260504210659 | 30 | 40 | 6.4 | 14.5 | 0.00 | 0.00 | 0.00 | 67 | 1015.9 |
| 20260504210155 | 30 | 20 | 4.8 | 11.3 | 0.00 | 0.00 | 0.00 | 64 | 1015.9 |
| 20260504205653 | 30 | 195 | 3.2 | 14.5 | 0.00 | 0.00 | 0.00 | 64 | 1015.9 |
| 20260504205150 | 31 | 91 | 3.2 | 11.3 | 0.00 | 0.00 | 0.00 | 63 | 1015.9 |
| 20260504204648 | 30 | 14 | 3.2 | 11.3 | 0.00 | 0.00 | 0.00 | 63 | 1016.0 |
| 20260504204147 | 31 | 15 | 6.4 | 11.3 | 0.00 | 0.00 | 0.00 | 63 | 1016.2 |
| 20260504203645 | 30 | 8 | 1.6 | 11.3 | 0.00 | 0.00 | 0.00 | 63 | 1016.2 |
| 20260504203143 | 31 | 359 | 4.8 | 11.3 | 0.00 | 0.00 | 0.00 | 62 | 1016.2 |
| 20260504202643 | 31 | 316 | 4.8 | 6.4 | 0.00 | 0.00 | 0.00 | 62 | 1016.4 |
| 20260504202140 | 31 | 62 | 6.4 | 14.5 | 0.00 | 0.00 | 0.00 | 61 | 1016.6 |
| 20260504201637 | 31 | 25 | 8.0 | 12.9 | 0.00 | 0.00 | 0.00 | 63 | 1016.5 |
| 20260504201135 | 31 | 32 | 6.4 | 12.9 | 0.00 | 0.00 | 0.00 | 62 | 1016.4 |
| 20260504200631 | 31 | 13 | 3.2 | 9.7 | 0.00 | 0.00 | 0.00 | 61 | 1016.8 |
| 20260504200128 | 31 | 41 | 9.7 | 16.1 | 0.00 | 0.00 | 0.00 | 62 | 1016.6 |
| 20260504195624 | 31 | 251 | 1.6 | 11.3 | 0.00 | 0.00 | 0.00 | 62 | 1016.7 |
| 20260504195120 | 31 | 289 | 1.6 | 9.7 | 0.00 | 0.00 | 0.00 | 62 | 1016.9 |
| 20260504194617 | 31 | 336 | 1.6 | 6.4 | 0.00 | 0.00 | 0.00 | 63 | 1016.8 |
| 20260504194113 | 31 | 99 | 6.4 | 11.3 | 0.00 | 0.00 | 0.00 | 63 | 1017.1 |
| 20260504193609 | 31 | 313 | 3.2 | 9.7 | 0.00 | 0.00 | 0.00 | 63 | 1016.9 |
| 20260504193108 | 32 | 129 | 3.2 | 11.3 | 0.00 | 0.00 | 0.00 | 61 | 1017.1 |
| 20260504192606 | 31 | 347 | 1.6 | 11.3 | 0.00 | 0.00 | 0.00 | 62 | 1017.2 |
| 20260504192104 | 31 | 255 | 3.2 | 6.4 | 0.00 | 0.00 | 0.00 | 63 | 1017.3 |
| 20260504191602 | 31 | 318 | 3.2 | 9.7 | 0.00 | 0.00 | 0.00 | 64 | 1017.2 |
| 20260504191057 | 32 | 169 | 3.2 | 4.8 | 0.00 | 0.00 | 0.00 | 61 | 1017.4 |
| 20260504190554 | 32 | 97 | 8.0 | 12.9 | 0.00 | 0.00 | 0.00 | 61 | 1017.3 |
| 20260504190050 | 31 | 253 | 3.2 | 16.1 | 0.00 | 0.00 | 0.00 | 64 | 1017.3 |
| 20260504185547 | 31 | 194 | 3.2 | 11.3 | 0.00 | 0.00 | 0.00 | 63 | 1017.4 |
| 20260504185044 | 31 | 64 | 3.2 | 11.3 | 0.00 | 0.00 | 0.00 | 64 | 1017.4 |
| 20260504184539 | 31 | 329 | 3.2 | 14.5 | 0.00 | 0.00 | 0.00 | 65 | 1017.4 |
| 20260504184035 | 31 | 333 | 8.0 | 12.9 | 0.00 | 0.00 | 0.00 | 63 | 1017.4 |
| 20260504183532 | 31 | 307 | 3.2 | 12.9 | 0.00 | 0.00 | 0.00 | 65 | 1017.5 |
| 20260504183030 | 31 | 110 | 3.2 | 11.3 | 0.00 | 0.00 | 0.00 | 62 | 1017.6 |
| 20260504182526 | 31 | 205 | 3.2 | 6.4 | 0.00 | 0.00 | 0.00 | 61 | 1017.6 |
| 20260504182024 | 32 | 60 | 4.8 | 14.5 | 0.00 | 0.00 | 0.00 | 61 | 1017.8 |
| 20260504181521 | 31 | 151 | 4.8 | 12.9 | 0.00 | 0.00 | 0.00 | 62 | 1017.6 |
| 20260504181020 | 31 | 349 | 4.8 | 12.9 | 0.00 | 0.00 | 0.00 | 62 | 1017.7 |
| 20260504180518 | 32 | 268 | 6.4 | 14.5 | 0.00 | 0.00 | 0.00 | 62 | 1017.6 |
| 20260504180016 | 32 | 131 | 4.8 | 12.9 | 0.00 | 0.00 | 0.00 | 62 | 1017.9 |
| 20260504175513 | 31 | 4 | 4.8 | 9.7 | 0.00 | 0.00 | 0.00 | 62 | 1018.1 |
| 20260504175010 | 31 | 243 | 8.0 | 11.3 | 0.00 | 0.00 | 0.00 | 64 | 1017.8 |
| 20260504174508 | 31 | 215 | 4.8 | 16.1 | 0.00 | 0.00 | 0.00 | 64 | 1018.1 |
| 20260504174005 | 31 | 255 | 1.6 | 17.7 | 0.00 | 0.00 | 0.00 | 64 | 1018.2 |
| 20260504173501 | 31 | 247 | 4.8 | 12.9 | 0.00 | 0.00 | 0.00 | 65 | 1018.4 |
| 20260504172959 | 30 | 202 | 6.4 | 14.5 | 0.00 | 0.00 | 0.00 | 65 | 1018.6 |
| 20260504172454 | 30 | 128 | 4.8 | 9.7 | 0.00 | 0.00 | 0.00 | 66 | 1018.6 |
| 20260504171951 | 30 | 120 | 4.8 | 11.3 | 0.00 | 0.00 | 0.00 | 65 | 1018.6 |
| 20260504171448 | 31 | 317 | 6.4 | 11.3 | 0.00 | 0.00 | 0.00 | 64 | 1018.9 |
| 20260504170945 | 31 | 3 | 6.4 | 9.7 | 0.00 | 0.00 | 0.00 | 64 | 1018.9 |
| 20260504170441 | 31 | 354 | 6.4 | 14.5 | 0.00 | 0.00 | 0.00 | 64 | 1018.9 |
| 20260504160401 | 32 | 42 | 8.0 | 11.3 | 0.00 | 0.00 | 0.00 | 62 | 1019.5 |
| 20260504150825 | 31 | 14 | 4.8 | 12.9 | 0.00 | 0.00 | 0.00 | 64 | 1020.1 |
| 20260504150322 | 31 | 356 | 3.2 | 9.7 | 0.00 | 0.00 | 0.00 | 64 | 1020.1 |
| 20260504141252 | 31 | 32 | 4.8 | 9.7 | 0.00 | 0.00 | 0.00 | 65 | 1020.0 |
| 20260504140749 | 30 | 81 | 4.8 | 12.9 | 0.00 | 0.00 | 0.00 | 67 | 1020.2 |
| 20260504140244 | 30 | 354 | 3.2 | 6.4 | 0.00 | 0.00 | 0.00 | 68 | 1020.0 |
| 20260504130713 | 29 | 38 | 4.8 | 6.4 | 0.00 | 0.00 | 0.00 | 73 | 1020.2 |
| 20260504130209 | 28 | 304 | 3.2 | 11.3 | 0.00 | 0.00 | 0.00 | 74 | 1020.1 |
| 20260504120133 | 28 | 121 | 4.8 | 11.3 | 0.00 | 0.00 | 0.00 | 73 | 1019.8 |
| 20260504110600 | 27 | 355 | 1.6 | 3.2 | 0.00 | 0.00 | 0.00 | 78 | 1018.9 |
| 20260504100522 | 26 | 347 | 1.6 | 3.2 | 0.00 | 0.00 | 0.00 | 79 | 1018.4 |
| 20260504081915 | 26 | 38 | 3.2 | 6.4 | 0.00 | 0.00 | 0.00 | 79 | 1017.6 |
| 20260504081412 | 26 | 43 | 3.2 | 9.7 | 0.00 | 0.00 | 0.00 | 79 | 1017.7 |
| 20260504080908 | 26 | 348 | 1.6 | 3.2 | 0.00 | 0.00 | 0.00 | 80 | 1017.6 |
| 20260504080405 | 26 | 325 | 1.6 | 3.2 | 0.00 | 0.00 | 0.00 | 79 | 1017.6 |
| 20260504070332 | 26 | 50 | 3.2 | 4.8 | 0.00 | 0.00 | 0.00 | 81 | 1017.8 |
| 20260504050721 | 26 | 318 | 3.2 | 4.8 | 0.00 | 0.00 | 0.00 | 78 | 1018.6 |
| 20260504050218 | 26 | 28 | 3.2 | 4.8 | 0.00 | 0.00 | 0.00 | 78 | 1018.6 |